GFSNW_500_spd_072.txt.gz
Wind_Speed
36 35 33 33 33 32 37 44 45 37 39 38 30 28 28 20 16 25 30 19 43 42 38 42 40 37 42 38 31 35 34 37 41 39 34 40 40 36 32 36 29 25 25 23
34 33 32 32 34 39 42 46 46 43 41 38 32 32 27 24 18 21 23 18 34 48 46 37 26 38 41 35 40 34 34 38 36 37 36 43 50 43 30 34 32 32 29 23
36 36 37 39 42 44 46 49 49 48 44 39 36 34 28 27 24 21 20 20 25 59 52 36 39 35 36 35 35 37 38 37 34 35 29 41 49 42 29 31 38 36 38 27
43 43 43 44 46 48 48 54 51 48 47 41 36 35 30 28 26 23 20 21 23 44 63 60 49 36 30 34 33 29 35 38 34 35 26 45 50 47 38 32 32 34 31 36
49 48 48 48 50 51 56 55 51 51 50 44 39 36 30 31 30 27 23 20 21 42 51 54 54 51 41 25 28 27 32 36 27 25 28 49 51 52 44 39 40 36 29 38
59 59 58 57 56 57 60 57 52 54 53 48 41 34 35 36 34 30 24 23 24 23 53 48 51 54 52 33 34 35 32 31 32 33 27 51 55 44 49 43 40 35 35 31
56 62 66 69 68 65 63 61 57 58 56 51 43 43 42 38 35 31 27 28 27 24 52 56 54 52 46 57 39 32 36 31 29 33 34 47 51 39 47 44 36 31 30 28
47 49 47 51 63 70 73 68 62 62 59 55 54 49 44 41 41 36 32 33 28 27 35 60 59 51 46 48 46 44 26 37 33 30 29 33 50 43 34 40 37 31 33 32
41 38 50 50 47 48 60 72 69 64 62 63 55 54 48 45 42 37 37 34 33 33 33 36 41 55 61 49 43 41 43 39 36 35 35 31 41 51 49 37 42 38 38 38
43 43 38 47 46 45 47 54 58 61 65 56 57 58 51 48 48 45 41 36 36 36 38 37 34 36 52 54 50 39 40 40 41 39 39 37 37 53 42 44 42 35 31 30
42 39 38 43 43 43 45 45 63 71 44 56 47 50 52 49 47 48 43 42 42 42 40 36 33 33 43 57 51 44 43 45 46 42 35 38 36 49 55 51 51 48 40 35
42 44 38 41 44 44 44 41 67 71 51 36 51 47 49 39 38 39 45 43 40 41 38 36 31 33 32 46 52 46 40 35 38 38 36 35 36 43 45 44 53 53 50 49
32 42 38 37 42 46 43 36 56 69 36 30 39 50 49 39 33 37 39 45 44 44 38 33 33 33 31 46 54 38 41 32 33 39 41 38 35 39 39 42 41 51 52 55
34 42 35 35 37 40 39 41 48 67 32 31 36 37 43 36 34 35 34 38 40 40 39 37 36 28 25 39 49 50 36 35 34 39 34 36 33 35 40 39 37 36 40 49
35 37 36 30 33 38 33 45 43 48 29 41 37 35 35 32 34 34 37 36 32 36 37 34 33 40 29 28 44 50 35 26 31 38 33 33 29 30 34 40 43 39 34 44
35 32 32 31 31 36 43 51 61 40 31 44 43 36 33 34 31 29 30 33 31 33 27 27 27 39 35 30 35 39 47 49 35 33 38 36 37 37 43 32 36 32 43 41
31 34 36 39 40 39 43 43 56 37 33 43 39 38 31 25 27 27 26 29 37 33 30 32 32 34 44 29 34 32 42 59 48 44 39 32 38 40 40 33 34 39 40 32
38 38 42 43 50 33 40 46 50 40 38 40 39 36 29 26 30 31 32 34 41 39 25 29 35 32 46 40 26 35 33 42 46 45 45 39 38 41 41 35 31 32 32 31
35 41 45 47 35 35 44 38 43 44 41 40 33 29 27 30 29 24 23 33 37 38 38 29 38 42 39 31 27 32 33 38 42 44 42 43 43 35 33 34 31 30 31 34
36 39 51 47 43 37 38 38 36 35 32 30 25 24 22 24 26 25 25 26 31 34 38 36 42 46 36 23 23 35 34 35 39 37 36 40 39 39 34 36 35 33 32 33
45 48 43 41 37 35 34 32 31 30 28 27 27 25 23 22 21 23 19 12 12 19 18 33 42 52 41 17 25 29 33 34 37 40 37 35 37 37 36 36 37 37 36 38
33 35 36 35 34 30 29 28 29 27 26 29 23 20 18 15 16 18 14 4 5 13 18 31 47 53 39 36 19 36 30 38 32 32 36 37 38 40 41 41 42 41 40 42
19 24 25 27 27 28 26 25 27 30 31 24 20 17 14 16 20 19 12 14 8 7 12 28 40 41 38 28 27 28 31 27 34 31 32 32 35 37 39 40 43 46 45 46
17 20 23 25 26 24 24 24 25 26 24 19 15 14 15 18 23 22 12 12 9 5 12 19 31 33 34 34 39 30 25 26 34 37 35 33 35 37 39 41 42 45 48 48
12 14 16 18 19 19 21 21 19 17 12 5 8 8 9 15 24 22 17 15 11 9 9 14 13 22 24 28 35 48 40 33 28 29 34 37 39 39 39 40 40 40 40 41
10 11 14 17 18 21 20 19 16 12 7 9 10 12 12 12 19 13 11 12 11 10 10 12 10 16 14 17 19 28 32 33 29 30 27 30 32 33 31 30 30 29 30 29
9 11 14 17 21 21 19 18 15 9 8 11 15 15 11 10 10 12 7 7 5 8 8 6 7 15 16 15 15 25 33 36 32 30 32 35 30 28 30 30 29 30 32 35

GFSNW_500_spd_075.txt.gz
Wind_Speed
55 54 53 53 51 46 45 45 47 42 41 46 44 42 37 33 31 28 29 32 28 17 32 44 45 36 51 54 52 48 44 42 41 36 41 41 42 40 38 41 47 42 32 21
44 45 44 43 41 40 38 38 37 34 38 47 44 39 36 35 27 23 28 34 34 27 28 46 52 37 36 48 52 50 41 47 45 40 45 45 45 45 40 44 44 41 39 20
29 31 33 33 32 31 33 38 38 43 41 45 42 40 39 35 28 26 26 27 27 31 29 51 46 43 39 36 47 49 43 48 48 45 42 45 46 47 40 46 49 45 46 27
28 30 32 32 33 35 46 45 48 44 41 40 40 40 36 33 28 26 25 24 25 27 28 51 47 55 42 38 40 39 44 47 49 41 37 40 48 45 41 48 49 47 40 36
37 38 38 39 40 42 50 52 44 47 43 45 42 44 36 33 28 24 26 21 22 27 22 45 54 44 32 52 40 34 40 45 41 39 37 35 36 32 39 47 54 52 45 40
44 45 47 47 48 51 55 53 50 52 50 49 45 41 37 32 30 26 27 29 26 23 20 35 52 51 43 32 33 24 37 41 45 41 35 33 40 35 38 43 55 55 49 42
54 55 56 54 55 58 58 56 53 53 55 51 46 45 41 36 34 30 30 31 27 24 30 25 37 56 57 50 36 33 24 37 32 33 35 36 33 31 39 48 49 51 46 39
43 50 59 64 63 63 62 61 58 54 54 55 49 43 42 40 37 33 28 32 32 29 30 27 26 31 46 55 51 45 43 24 33 36 30 34 39 21 34 50 44 50 47 43
40 42 45 48 60 66 60 62 61 59 58 57 52 47 45 41 38 36 28 30 35 34 34 30 26 21 24 41 45 46 49 44 41 17 35 34 34 27 30 48 44 41 53 47
45 45 46 49 48 52 64 67 64 61 61 59 56 50 46 44 40 37 32 32 36 38 37 33 27 21 23 26 34 42 48 54 48 38 28 36 30 25 26 38 42 38 55 48
42 42 45 47 47 48 54 50 56 70 70 65 60 57 51 47 42 38 34 35 37 39 39 37 32 27 23 27 30 42 47 46 44 43 36 34 37 27 25 33 36 34 35 41
42 42 40 42 43 44 44 51 48 47 65 71 68 61 55 48 40 38 37 34 36 39 40 39 35 31 26 24 24 36 50 57 51 44 38 39 36 35 31 28 19 37 36 37
33 37 43 42 42 42 41 43 44 43 50 64 68 65 55 49 46 45 41 38 39 41 42 40 37 33 29 25 26 27 38 47 48 42 34 38 37 35 33 30 35 32 36 43
35 38 39 43 39 38 37 37 39 39 42 54 52 50 45 47 43 42 32 33 35 42 44 44 41 35 33 30 30 28 36 44 47 37 30 30 40 40 35 33 33 37 38 37
31 33 38 39 38 39 38 34 33 38 45 37 42 32 33 34 37 32 28 31 35 37 44 43 39 37 36 34 34 36 34 44 50 40 26 34 31 33 29 31 33 38 39 36
30 37 34 35 38 40 37 34 35 48 37 37 36 32 28 29 32 33 30 33 32 33 38 40 37 35 37 36 35 33 24 39 52 48 36 32 31 33 32 30 33 32 34 39
35 33 30 30 32 36 39 29 50 53 31 27 34 28 30 28 32 33 33 32 32 29 28 35 37 38 40 38 38 35 21 27 34 50 40 30 30 32 32 30 27 32 39 32
34 31 31 35 34 35 39 37 47 48 18 20 40 35 32 32 32 32 36 36 34 30 28 34 35 33 35 40 37 37 32 29 29 47 41 35 36 33 33 28 30 29 27 25
38 39 34 35 38 36 54 41 34 26 25 31 37 34 33 28 28 27 28 26 26 34 35 38 33 32 39 36 36 34 27 32 31 30 48 40 39 42 38 38 34 31 31 28
42 38 36 32 35 42 34 39 34 28 29 33 33 30 26 24 26 23 29 31 31 33 34 38 38 32 34 37 43 43 32 28 31 33 47 46 39 42 42 35 34 34 32 33
34 33 40 37 35 35 30 33 29 30 28 27 24 23 24 19 20 23 25 20 19 23 28 37 43 45 42 36 40 35 37 30 24 29 35 37 36 36 38 37 37 38 37 34
28 29 40 42 39 34 35 33 27 28 25 23 21 20 19 16 17 17 18 15 11 12 22 31 38 38 37 40 38 33 29 19 30 32 35 36 39 40 40 39 39 41 40 40
28 31 32 35 35 35 36 34 28 24 22 21 18 18 20 18 16 15 16 18 12 6 9 12 12 13 21 31 45 32 18 24 16 19 31 34 32 37 42 43 41 40 42 42
23 21 20 23 26 25 23 21 21 21 17 16 19 16 16 15 16 18 16 18 14 10 8 8 2 7 14 28 42 31 24 21 29 29 40 34 38 34 36 40 42 42 42 42
18 17 16 14 16 17 15 16 17 16 18 19 16 15 17 17 18 23 18 15 12 6 9 7 8 6 11 22 27 37 32 34 37 35 32 30 33 36 36 39 40 39 40 38
18 16 16 16 16 16 16 16 16 15 15 12 11 10 13 16 20 23 18 11 9 10 10 9 7 9 17 25 27 26 27 30 36 39 37 30 33 35 35 36 37 36 36 38
14 17 17 17 17 18 19 17 16 10 12 14 14 14 9 9 12 12 8 9 10 4 8 10 7 8 11 14 17 21 21 23 23 31 40 40 35 34 35 36 37 38 39 36

GFSNW_500_spd_078.txt.gz
Wind_Speed
41 42 46 51 54 53 55 54 55 54 52 54 56 51 50 50 49 49 47 41 38 35 41 48 51 49 43 46 47 51 51 51 51 47 42 40 43 43 43 43 41 40 37 33
42 42 43 44 47 50 51 53 51 52 52 55 55 54 52 49 46 40 34 32 33 34 38 43 39 40 38 44 44 45 48 51 54 51 47 46 47 48 47 46 44 44 42 33
20 30 36 39 42 44 47 49 50 51 53 51 50 49 44 41 36 31 29 28 27 33 35 36 34 33 36 35 41 45 45 49 48 51 47 47 46 48 50 48 47 46 42 36
21 18 22 30 36 40 44 45 48 45 48 42 38 34 32 35 33 32 31 29 27 27 36 39 38 32 36 43 35 32 38 40 48 46 48 49 47 45 45 46 44 45 42 38
25 24 21 24 29 34 39 38 37 33 25 29 34 35 29 32 30 31 31 28 23 29 31 34 36 35 32 46 44 42 32 37 44 47 48 46 51 49 47 46 46 47 45 44
32 31 31 30 32 37 38 34 34 33 28 31 31 27 27 29 32 32 28 26 25 27 29 29 33 33 32 45 52 36 19 27 20 41 46 46 49 46 43 44 46 49 49 47
42 40 41 42 44 48 50 45 40 47 47 40 31 30 31 33 31 33 30 26 27 29 30 25 25 21 24 31 43 43 37 43 12 35 39 38 45 42 39 38 38 43 44 46
51 51 51 52 54 54 56 54 52 50 47 41 41 40 36 35 36 35 31 26 27 33 31 27 24 21 22 33 35 38 20 35 23 17 36 35 39 38 31 33 35 40 38 38
27 35 44 57 61 60 64 60 56 55 52 48 45 42 40 37 37 35 29 27 30 32 33 30 24 23 18 20 34 43 44 45 40 32 15 31 30 32 33 37 34 30 38 38
33 35 34 37 48 61 63 63 65 62 60 54 49 44 41 41 38 34 31 30 31 37 36 33 27 24 20 19 20 21 28 36 34 34 33 20 21 13 28 37 29 29 31 36
38 38 42 42 42 43 50 55 59 62 65 61 55 50 44 42 39 34 32 34 34 35 33 33 31 24 20 18 18 18 22 27 29 34 35 38 26 20 22 27 25 27 26 37
36 38 39 44 46 42 44 45 50 55 58 62 60 56 48 43 41 33 32 34 36 36 34 32 31 29 25 22 19 19 23 26 34 36 35 37 32 31 29 23 27 22 27 27
35 34 35 40 42 42 44 42 42 51 54 55 59 59 51 47 43 38 34 34 37 37 36 35 32 32 29 25 23 20 21 25 28 34 36 37 39 30 29 28 28 26 26 22
38 38 36 38 36 38 41 39 40 43 44 53 56 55 55 48 44 41 38 37 36 40 39 37 35 33 31 30 28 26 25 26 29 28 33 42 39 36 34 32 30 29 29 28
28 36 33 37 35 32 36 34 35 38 43 45 46 50 56 55 48 39 39 37 38 40 42 41 39 37 35 33 32 30 28 27 31 34 35 38 31 33 35 35 31 31 35 35
29 35 31 34 37 33 33 32 34 35 37 38 39 43 43 39 41 41 38 34 37 37 41 42 41 41 40 38 36 34 32 32 33 35 37 39 38 32 34 29 25 28 29 32
29 34 30 40 35 28 28 29 28 31 31 26 21 25 22 24 23 24 29 31 31 24 30 38 38 39 41 41 37 36 35 35 35 35 40 36 45 37 27 26 29 31 31 27
32 36 34 36 36 33 29 26 25 36 38 26 23 28 27 37 27 28 27 29 27 28 26 28 31 32 35 39 40 38 37 34 36 38 36 34 44 47 41 32 30 31 31 31
35 39 40 38 31 28 26 31 47 47 37 23 27 31 29 30 31 31 29 33 28 27 27 28 28 30 39 41 38 38 40 42 37 43 39 36 37 42 41 39 33 33 34 30
37 41 37 34 31 26 27 41 38 18 11 12 19 31 28 23 24 28 29 29 29 29 29 31 33 33 35 36 37 39 33 31 35 41 39 34 30 33 39 43 41 36 36 37
24 30 30 36 39 32 31 31 26 28 26 27 29 24 24 22 21 22 23 23 22 22 23 29 34 36 34 36 35 32 35 35 31 32 31 35 37 33 36 41 41 41 37 37
33 27 36 35 30 28 34 24 22 24 23 26 23 18 18 14 15 17 18 18 23 22 24 30 32 30 32 35 40 42 33 28 32 41 41 32 31 31 35 39 44 39 37 39
31 29 31 28 24 28 26 20 17 19 19 15 15 13 17 14 12 17 17 19 22 16 11 7 8 11 20 32 43 49 53 52 44 34 29 32 19 28 31 33 34 38 41 43
28 22 23 22 27 22 16 14 11 12 11 14 15 14 14 14 15 13 13 17 18 13 10 8 8 12 13 17 24 30 27 28 43 38 25 13 16 23 27 33 36 35 37 39
26 22 19 17 15 13 11 10 13 12 12 12 11 14 12 16 15 13 13 17 20 15 11 13 15 15 15 16 16 12 19 18 29 21 19 24 27 26 27 34 39 39 39 37
15 15 16 17 16 15 14 14 14 12 11 10 10 13 15 18 20 18 19 17 16 17 14 13 13 14 12 14 13 8 16 19 25 27 29 29 32 35 34 33 35 37 38 39
16 14 14 14 14 14 12 12 12 11 11 10 10 8 7 8 11 15 21 18 13 10 7 8 11 9 8 8 12 16 20 23 24 26 29 30 30 33 35 44 37 37 35 33

GFSNW_500_spd_081.txt.gz
Wind_Speed
29 31 33 32 32 36 42 46 50 45 48 49 52 54 50 49 48 47 45 43 42 42 43 44 45 44 48 46 43 43 43 46 46 43 42 42 44 45 44 45 46 45 42 40
24 22 28 32 33 36 39 43 45 45 47 52 48 47 48 47 47 47 46 44 43 42 42 44 46 47 45 49 45 42 42 45 46 45 40 42 43 48 48 47 48 48 45 44
23 24 24 21 31 34 38 40 43 47 47 48 47 46 46 46 44 45 45 44 42 39 36 38 43 43 39 37 42 40 38 41 44 44 43 43 39 38 47 48 49 47 46 43
27 26 24 24 20 29 36 41 41 42 46 47 45 44 43 42 43 42 39 40 34 29 28 30 37 37 38 36 29 33 34 36 38 41 37 38 42 44 44 49 49 51 46 45
32 30 27 26 24 22 32 38 36 37 40 40 40 39 37 36 36 34 33 31 26 25 23 26 34 37 37 40 36 22 30 32 37 34 32 30 40 39 42 45 47 51 50 47
35 34 31 29 30 25 25 26 30 34 36 36 35 36 28 25 25 26 28 27 26 23 24 32 32 37 37 33 35 35 30 33 28 26 32 40 39 43 41 43 47 48 48 46
42 40 39 34 34 34 25 19 22 28 28 30 27 25 31 26 17 25 26 23 25 23 28 29 29 28 30 34 29 34 30 44 34 27 10 23 32 40 39 38 41 44 46 47
33 43 46 43 37 42 36 27 29 25 25 24 23 28 29 27 23 24 24 20 20 22 27 29 27 24 25 21 19 23 30 43 45 27 16 13 25 25 31 36 36 39 43 44
23 22 34 45 42 45 48 39 35 34 33 32 28 27 26 23 21 20 19 22 21 22 26 30 27 23 20 18 12 15 28 32 41 37 29 21 10 20 21 30 35 31 37 39
29 28 26 27 37 42 50 52 46 43 41 35 33 29 27 26 26 22 23 23 23 26 29 31 30 24 21 16 10 9 19 33 35 33 34 22 17 10 17 28 28 32 32 31
34 34 33 32 29 34 43 52 57 56 52 47 41 37 33 30 26 24 25 25 25 29 28 32 32 28 22 16 10 7 9 12 15 23 19 30 19 15 12 16 18 22 28 31
37 39 39 38 36 35 34 40 53 53 56 55 50 45 40 35 31 33 30 25 26 29 29 31 32 29 23 18 13 11 9 15 16 16 13 16 18 17 20 18 16 15 17 22
34 32 34 36 35 36 37 36 37 46 54 54 55 52 49 42 38 35 31 29 27 30 32 33 30 25 23 21 17 16 12 13 18 17 23 24 28 26 27 26 23 20 17 16
31 30 30 32 34 33 34 35 32 34 38 51 54 52 50 45 43 38 33 29 29 33 34 33 31 29 26 23 23 21 19 16 15 15 19 21 26 27 30 29 22 21 23 21
32 33 32 30 27 29 30 32 31 31 32 38 45 45 39 37 40 39 35 31 32 33 36 36 33 29 27 25 23 22 20 20 21 20 18 18 22 24 25 34 33 30 27 26
29 29 32 32 28 36 37 32 32 33 32 32 39 43 37 35 35 36 33 29 34 35 35 35 34 33 31 29 28 26 23 24 25 26 27 27 26 25 25 29 36 34 29 29
31 32 31 33 33 32 31 25 22 28 31 32 33 34 39 45 43 36 37 33 28 33 35 35 34 34 35 35 33 31 30 29 30 31 31 31 33 32 29 28 35 35 34 29
34 35 36 40 30 28 26 19 24 28 27 26 27 28 31 29 30 26 32 36 36 33 28 31 34 35 37 39 37 37 35 36 36 36 36 35 38 39 33 30 38 32 32 29
33 40 41 37 32 27 24 26 21 21 23 22 22 18 20 23 27 25 21 24 25 24 24 26 29 33 38 39 39 40 39 38 39 40 39 38 38 39 33 29 32 44 40 33
34 33 32 29 28 27 24 24 27 29 33 21 32 30 29 33 21 32 29 27 27 33 23 20 24 28 31 32 34 35 37 38 39 40 41 41 40 39 35 32 30 40 45 42
35 32 31 29 28 22 17 32 39 20 22 26 27 25 16 29 28 22 28 23 22 22 23 25 25 26 28 30 30 29 29 33 38 36 38 35 33 32 33 35 32 33 39 37
33 38 39 35 27 29 34 23 19 22 20 17 16 15 21 21 20 20 19 21 21 23 25 23 23 25 28 30 30 31 33 32 34 34 33 37 33 31 33 34 35 34 35 40
27 29 29 29 27 25 23 24 23 20 20 21 19 16 20 17 14 13 14 15 18 23 23 20 16 15 19 25 29 31 32 32 35 38 38 27 25 33 38 36 35 31 37 36
27 26 24 22 20 16 20 21 21 20 19 17 13 13 13 11 10 11 13 15 17 20 19 13 14 14 15 17 18 20 24 28 33 38 42 44 42 31 27 28 25 32 35 31
22 21 21 20 16 10 13 14 14 14 12 12 10 10 12 11 11 12 11 13 16 14 15 14 15 14 18 20 23 25 24 25 23 25 27 31 34 31 21 20 19 24 26 29
12 12 8 9 9 9 9 9 9 8 9 8 6 5 6 8 12 15 16 14 12 14 17 16 16 19 20 20 18 19 20 13 13 12 13 19 22 27 28 25 26 28 30 34
9 7 8 8 7 7 6 7 7 7 6 5 4 6 7 7 10 15 17 15 15 14 17 20 17 17 16 16 15 15 14 15 13 15 17 23 26 29 30 32 30 28 30 31

GFSNW_500_spd_084.txt.gz
Wind_Speed
31 30 31 28 27 31 32 30 28 26 34 40 46 47 46 43 43 42 43 42 40 37 36 36 35 33 33 29 29 31 32 33 33 32 34 33 33 34 39 42 43 45 43 40
32 29 27 30 25 25 34 31 26 27 32 36 41 41 42 41 41 39 40 40 39 38 37 36 36 35 34 33 32 33 34 36 36 35 34 35 37 36 34 36 41 44 44 41
29 27 27 24 26 27 26 33 30 29 32 35 36 39 39 39 37 36 39 38 38 36 36 36 36 33 34 34 35 37 37 38 39 37 36 37 40 38 41 40 43 41 44 44
28 28 28 26 25 25 30 27 28 27 31 33 34 37 39 37 37 37 34 37 37 34 32 34 35 34 35 36 38 40 40 40 39 38 36 36 39 40 41 42 44 47 40 42
30 31 31 30 28 27 33 30 25 26 26 30 36 37 39 37 35 35 32 34 31 32 31 29 31 35 36 37 37 38 39 32 26 27 30 30 36 36 37 44 44 44 42 42
35 36 35 33 31 32 34 28 23 19 22 30 29 37 33 32 29 28 27 25 30 29 27 29 30 31 30 28 30 34 34 29 20 23 29 26 25 32 35 37 42 47 46 40
40 39 37 34 32 33 35 30 23 21 17 27 29 30 31 30 27 23 24 24 25 27 28 28 26 26 27 27 28 32 31 31 33 26 28 28 20 27 38 37 39 40 42 41
37 33 35 37 35 35 36 33 26 18 15 21 28 29 28 26 27 30 27 23 25 23 25 24 25 26 26 23 24 26 27 30 32 31 30 26 19 5 23 31 36 37 35 34
23 22 20 20 29 35 39 38 31 22 19 18 20 23 22 25 30 27 29 23 21 19 21 25 27 24 21 20 17 18 21 28 27 29 30 35 30 8 14 20 28 36 34 36
26 27 26 24 23 28 34 38 38 30 26 24 24 26 26 28 29 26 23 20 18 19 23 26 24 20 20 17 13 12 13 19 21 22 27 29 30 24 4 22 15 24 27 30
30 31 32 29 28 26 26 35 44 39 33 29 32 31 31 31 26 23 21 19 17 20 25 25 24 19 19 15 13 11 9 8 14 20 22 29 25 21 6 8 13 24 12 22
35 33 33 32 31 29 26 28 42 44 41 39 36 34 30 25 23 25 21 18 18 21 23 23 21 19 17 18 17 15 16 12 9 9 14 19 18 19 18 12 15 18 27 24
35 36 35 34 34 33 28 25 37 43 43 44 41 37 33 31 28 25 19 17 17 18 22 24 23 22 17 17 17 17 16 17 20 16 16 13 15 23 30 22 20 18 16 19
30 31 36 36 33 36 32 29 27 39 42 43 43 41 38 36 31 25 23 21 20 22 23 25 25 21 18 17 22 21 19 15 15 17 19 18 21 21 22 24 24 21 21 18
27 26 27 30 30 31 29 30 29 29 34 42 41 40 40 39 35 32 31 25 22 21 24 26 24 22 20 19 19 20 20 17 16 15 13 13 15 15 15 15 16 23 28 25
28 29 29 28 33 32 29 29 33 31 29 32 31 39 41 37 39 31 28 27 24 23 24 25 24 23 22 21 20 20 21 22 21 20 20 20 19 17 18 17 17 19 22 25
27 32 33 32 33 32 29 26 26 29 30 27 26 29 35 38 34 32 29 29 27 27 26 28 24 19 23 24 23 20 20 21 21 23 24 24 23 24 24 24 22 21 23 26
31 36 36 32 32 27 25 21 19 24 26 27 26 25 24 29 33 32 28 29 29 30 29 28 27 25 26 26 24 24 24 26 27 27 28 29 30 30 30 30 28 28 27 28
39 37 35 38 32 29 24 20 18 19 22 25 26 21 21 29 32 32 28 28 31 30 27 23 23 24 30 29 28 26 27 28 30 31 31 32 33 35 36 36 34 32 31 28
37 37 33 30 30 27 25 18 19 21 22 20 20 18 19 26 26 25 26 26 26 25 30 30 30 32 30 30 30 30 30 33 34 35 36 37 37 39 40 41 40 37 34 32
33 32 30 31 28 25 25 21 21 25 26 30 30 27 25 27 33 32 21 24 24 27 29 25 24 19 15 17 21 26 30 32 34 36 38 40 42 41 40 38 38 38 37 38
25 21 20 21 21 22 20 20 21 31 22 26 32 19 21 26 28 33 27 26 29 26 23 27 17 13 20 25 28 30 32 34 34 34 34 34 35 36 35 33 33 33 36 38
31 27 25 15 15 19 25 22 24 24 24 22 21 16 21 22 27 22 28 21 24 25 21 19 18 22 21 24 28 30 32 34 35 37 39 39 39 37 35 33 35 36 34 33
28 27 25 22 20 21 21 18 21 21 19 17 18 20 20 19 17 20 19 21 22 22 22 21 21 22 23 24 23 23 26 28 30 33 34 34 37 40 40 34 25 24 27 31
23 22 19 22 19 21 23 23 23 21 18 16 18 17 15 14 15 15 14 14 15 16 17 19 21 24 26 23 23 25 27 32 34 33 33 32 32 33 37 41 41 36 32 28
17 16 15 11 15 17 18 19 18 17 15 14 13 13 12 11 11 12 12 12 12 14 19 22 23 22 21 20 21 23 24 22 21 21 23 23 23 23 27 33 37 37 31 28
13 13 13 14 13 14 13 12 14 13 11 9 9 11 11 11 13 16 19 19 18 16 17 18 20 19 19 20 21 19 19 17 14 19 16 16 17 17 17 19 25 32 36 37

GFSNW_500_spd_087.txt.gz
Wind_Speed
31 31 31 32 30 29 29 29 24 24 21 24 30 33 29 29 35 45 40 41 40 39 38 34 32 33 28 25 22 26 24 25 29 26 26 27 30 31 32 36 36 27 29 31
29 29 30 30 29 30 31 30 27 23 21 24 22 26 31 33 35 36 37 38 38 38 36 33 30 30 29 26 28 27 24 25 24 25 27 28 28 30 32 34 35 38 32 23
29 31 28 27 28 28 29 29 27 22 24 22 24 23 27 31 31 32 34 34 35 36 35 33 31 30 31 29 29 26 26 25 25 23 21 25 30 33 35 36 37 35 38 31
30 26 25 27 27 28 31 28 22 19 20 23 24 27 25 29 28 28 28 27 29 32 31 31 29 28 29 28 30 27 27 26 28 26 28 33 31 31 31 34 35 38 34 32
24 24 24 27 29 31 32 30 23 23 16 22 22 28 27 27 26 23 27 27 25 30 29 30 26 31 31 31 30 26 28 26 27 27 22 26 31 31 32 33 35 37 39 39
24 25 28 29 30 34 33 31 26 24 16 20 27 23 26 28 26 29 21 20 25 25 25 29 30 31 30 29 28 27 28 25 25 23 22 23 29 27 29 32 35 38 41 39
27 29 31 32 32 35 36 32 27 26 15 16 20 22 24 28 28 24 18 22 22 20 24 26 27 28 28 29 25 26 22 22 25 25 24 25 19 25 25 28 29 34 36 36
31 33 35 35 35 34 35 32 31 25 16 16 22 25 23 26 26 25 26 20 20 17 20 24 26 27 26 22 22 21 20 22 24 25 24 25 20 21 20 22 28 32 36 30
33 35 36 35 33 34 36 36 32 30 22 14 19 25 24 25 28 26 27 25 23 21 21 24 25 22 21 22 20 20 21 20 21 22 19 22 21 23 18 10 19 22 33 40
24 23 23 22 22 22 25 31 33 34 25 19 23 25 25 27 26 28 30 32 24 26 21 22 22 22 23 19 17 18 17 18 19 19 22 21 23 28 29 19 20 22 35 34
25 25 26 26 25 24 22 20 29 36 27 22 20 27 35 31 30 29 32 28 29 20 21 23 19 21 21 20 19 19 17 13 12 18 21 21 27 23 28 24 15 14 26 31
30 30 29 29 28 27 26 22 22 30 32 27 26 31 39 40 35 29 29 25 21 19 22 20 17 15 19 20 21 20 19 14 10 9 15 16 24 27 24 27 16 17 4 8
33 33 33 33 30 29 28 23 23 22 32 32 31 27 35 41 37 34 25 20 18 19 21 18 15 16 19 21 22 20 22 18 10 9 18 15 18 24 22 18 22 17 11 12
34 35 35 33 30 28 28 26 22 20 27 35 36 33 34 33 32 25 21 17 14 17 17 17 15 16 18 20 24 25 23 22 22 21 17 13 10 24 22 28 25 26 26 21
27 28 32 33 32 30 29 28 25 24 24 33 38 37 36 31 29 26 20 15 15 15 17 17 16 15 16 20 20 21 25 22 19 19 20 21 19 17 17 18 19 16 14 18
27 26 28 27 30 31 29 29 30 27 22 29 31 37 33 33 30 27 23 19 16 18 16 14 13 13 11 13 15 20 19 22 22 18 18 18 15 14 13 12 12 12 11 15
25 27 27 27 31 32 26 24 26 26 23 22 28 25 34 34 31 26 25 21 20 23 21 17 14 8 11 12 17 17 20 21 20 20 21 21 20 20 19 18 18 18 17 16
30 30 27 33 34 32 28 24 25 27 24 24 21 19 26 34 33 29 24 25 24 24 24 16 11 15 15 17 18 18 19 19 20 22 22 21 22 22 22 23 23 24 25 26
34 34 33 33 33 31 26 24 21 21 25 23 21 21 21 27 23 24 24 23 27 28 26 22 17 18 21 18 14 15 16 18 21 23 24 25 25 26 28 28 29 29 30 30
32 32 34 31 27 27 26 21 18 22 21 19 22 20 20 24 28 27 29 27 27 29 28 22 26 25 23 22 20 16 18 20 23 25 26 28 30 32 33 34 35 35 36 37
34 34 35 32 27 20 20 22 20 20 21 22 20 21 20 21 26 27 25 27 26 26 28 28 29 28 25 21 19 19 21 24 27 30 33 36 37 38 39 41 42 43 42 42
25 26 29 29 26 25 21 18 15 18 20 21 22 25 21 26 26 25 26 27 26 28 28 30 30 26 24 23 20 21 23 25 27 31 34 36 38 39 39 38 35 35 36 37
24 19 16 16 16 19 19 18 16 15 20 29 28 22 22 22 29 30 31 25 16 26 23 26 24 23 23 22 24 24 27 29 31 34 36 38 39 39 39 40 41 39 37 37
16 16 15 14 17 15 16 16 22 19 22 24 22 18 20 22 18 32 27 18 19 21 27 19 20 26 27 28 27 29 28 31 33 33 34 36 37 36 35 36 35 38 41 40
19 18 17 16 16 18 21 20 20 19 20 19 22 20 20 21 23 20 17 20 23 21 21 23 24 26 29 29 29 29 30 29 31 34 33 35 36 38 38 36 36 37 39 41
19 17 16 19 20 23 24 21 15 14 17 18 19 17 15 16 17 16 19 20 20 20 22 24 26 27 28 29 30 27 26 29 29 29 30 28 24 24 25 27 30 32 35 39
14 15 17 16 16 17 17 17 16 16 15 14 14 14 14 13 13 15 17 18 20 21 21 21 23 25 26 25 26 27 27 26 27 27 25 23 25 27 24 24 22 21 25 30

GFSNW_500_spd_090.txt.gz
Wind_Speed
22 24 25 27 29 30 30 28 24 22 24 25 27 25 23 26 25 38 25 32 33 31 34 32 36 33 41 24 23 24 29 25 27 24 8 16 20 26 31 35 33 28 24 28
21 22 22 24 26 28 27 27 23 23 23 22 22 20 21 24 29 24 40 29 41 41 25 36 38 35 39 33 28 23 21 24 22 19 27 23 24 21 20 26 31 34 26 35
20 20 21 23 24 26 26 25 22 20 21 21 20 17 15 16 26 28 31 32 42 40 48 49 45 40 40 31 30 32 22 22 23 20 17 26 26 25 26 27 26 30 34 29
19 20 22 24 25 25 25 23 18 18 16 16 13 18 17 15 24 25 27 22 23 40 46 42 37 34 33 31 29 22 24 23 23 21 23 23 23 26 30 33 33 33 29 34
20 21 21 24 23 26 26 21 16 18 18 17 14 14 18 21 20 25 27 26 23 24 21 30 31 34 32 28 27 25 25 23 25 23 22 28 31 28 28 27 29 31 34 35
24 24 23 22 23 27 23 20 19 22 19 18 16 13 15 24 22 26 25 17 24 25 29 31 32 32 32 31 28 23 23 22 23 19 21 26 26 26 29 28 31 33 36 34
15 16 18 20 23 26 26 21 23 25 19 19 13 15 19 21 27 27 28 14 21 19 24 24 27 30 28 26 24 25 22 21 22 19 21 23 17 24 25 26 28 28 29 30
18 19 20 22 24 28 30 26 27 25 22 20 18 12 14 21 27 29 31 22 21 18 21 22 24 25 24 22 25 23 18 19 20 20 19 18 20 20 20 21 26 26 24 24
20 22 26 27 29 31 34 32 28 27 25 17 20 18 22 21 23 28 26 23 16 21 16 15 19 14 14 15 14 17 17 18 20 20 16 14 14 15 19 19 24 23 21 20
22 22 23 25 28 30 32 33 31 31 29 18 22 17 19 24 23 26 27 27 24 23 22 22 18 20 15 15 15 14 15 17 18 16 17 16 16 10 21 20 22 18 21 21
21 20 20 19 19 19 19 18 22 27 27 20 20 20 20 27 26 28 24 29 28 27 23 20 17 17 17 22 19 12 12 14 13 14 18 19 21 17 13 23 26 22 22 31
23 23 22 21 21 21 20 18 17 19 21 24 24 19 26 31 28 26 24 27 27 29 24 19 19 20 24 21 23 22 17 16 15 14 11 14 14 27 29 24 28 28 20 23
26 26 25 25 24 23 22 20 19 19 17 19 28 25 30 41 36 34 35 23 29 28 23 20 20 21 18 19 21 23 19 20 17 14 15 17 19 5 23 28 26 24 18 17
34 32 31 28 27 26 24 21 21 20 15 15 23 28 28 40 40 38 28 29 29 26 22 19 20 20 19 21 20 26 11 16 18 18 15 15 24 21 25 22 21 20 21 24
27 30 33 29 30 27 26 23 22 21 17 12 24 28 28 37 38 39 30 29 26 20 22 21 21 20 19 18 23 32 28 24 26 23 27 20 20 15 15 24 24 24 26 19
29 25 23 29 29 31 30 28 26 21 16 14 16 28 28 35 38 34 34 24 21 19 18 19 22 23 17 15 18 23 27 26 25 21 23 22 19 16 15 10 9 8 9 13
31 24 21 24 27 31 29 24 20 23 21 17 14 18 29 34 34 32 26 20 20 23 22 21 13 11 18 14 16 15 16 23 25 23 24 20 18 17 15 14 12 13 14 14
26 27 24 25 26 30 29 25 19 23 23 20 14 18 22 33 29 26 19 18 18 23 23 19 17 16 17 17 18 19 20 19 21 21 23 23 20 19 18 19 18 17 18 19
28 28 28 29 27 28 27 26 20 21 21 21 17 21 15 23 30 26 21 17 20 22 22 20 17 17 21 15 19 19 21 21 20 20 20 20 20 20 21 22 24 25 26 27
29 29 29 34 29 27 24 21 16 19 23 16 16 19 21 19 26 32 26 22 21 21 24 21 20 19 20 19 16 15 15 16 16 19 21 22 23 24 25 27 29 30 31 33
29 29 29 29 27 28 24 24 21 21 23 19 18 18 18 22 24 20 25 26 26 25 25 26 26 25 23 21 19 16 16 19 21 23 24 26 27 29 31 34 37 38 39 40
24 24 28 29 29 27 24 21 16 15 20 21 20 18 17 19 25 25 24 27 27 22 23 25 30 25 22 22 21 21 23 24 26 28 30 31 32 33 35 37 39 41 42 43
29 26 22 22 22 22 20 19 16 11 14 15 19 22 21 20 20 20 25 28 26 25 26 27 24 21 24 27 28 28 28 31 30 30 29 30 31 33 34 36 37 37 39 41
21 18 19 18 20 16 13 10 9 10 15 23 20 22 22 22 22 19 24 26 25 21 26 24 19 21 25 29 30 30 31 31 30 29 28 30 31 31 32 35 37 37 38 39
13 11 11 11 10 11 11 11 11 12 15 21 28 19 20 19 20 18 24 25 30 19 20 18 23 26 24 27 31 33 33 32 32 32 32 32 33 35 37 37 36 34 36 38
19 16 14 13 13 15 19 20 17 13 16 16 17 20 19 22 18 14 16 22 20 19 19 20 21 25 28 29 30 32 33 35 36 35 33 32 34 36 34 32 29 28 25 24
18 19 20 19 20 18 18 15 14 10 13 10 14 12 14 12 13 15 16 18 20 21 23 24 25 27 29 31 34 36 37 37 35 33 32 35 34 32 32 31 30 30 32 30

GFSNW_500_spd_093.txt.gz
Wind_Speed
23 19 17 19 21 23 24 26 24 25 24 25 23 15 19 20 21 28 31 38 35 36 29 25 36 23 38 33 34 33 41 24 26 29 27 17 17 14 32 30 29 24 24 25
24 20 16 14 16 19 21 22 21 21 23 22 18 17 16 15 14 25 37 38 42 35 34 34 35 21 13 39 26 36 29 31 24 24 24 23 15 14 13 19 27 28 34 32
22 19 16 14 14 15 17 18 16 19 20 19 16 15 14 7 10 23 30 36 28 45 45 30 27 18 6 41 37 22 19 21 24 23 26 33 24 16 19 19 16 25 29 26
18 16 15 15 16 17 16 15 15 21 20 19 15 17 10 10 8 17 29 34 24 33 39 26 31 26 12 38 32 29 26 25 21 22 24 26 31 27 26 21 16 17 15 31
17 17 17 18 19 20 16 15 18 17 16 16 15 15 9 14 12 16 23 19 37 28 33 36 33 37 34 31 31 31 28 28 27 20 22 25 24 28 27 27 27 29 25 27
19 20 20 18 19 19 13 14 15 16 16 16 14 12 9 11 19 17 19 25 25 25 32 36 36 36 37 33 36 32 28 22 23 21 24 21 18 17 23 24 26 29 31 29
12 13 14 15 16 15 13 15 20 15 17 17 13 16 14 17 20 20 20 20 22 21 20 27 27 34 38 39 38 30 22 20 20 16 20 22 19 22 29 35 32 31 30 29
13 12 13 15 16 17 14 17 18 17 17 17 17 16 13 18 16 26 23 30 12 18 23 13 25 26 26 24 19 22 21 22 18 21 22 20 16 24 28 27 27 28 31 32
14 15 19 20 21 21 21 20 22 23 21 14 21 19 16 17 17 26 27 28 17 23 16 19 17 20 21 20 18 21 21 21 21 19 19 18 20 21 24 23 27 27 28 29
17 17 18 19 24 27 30 27 27 28 24 19 22 21 19 22 19 23 30 24 23 19 12 14 13 17 18 14 14 11 13 18 15 15 18 17 19 19 13 15 24 23 26 26
20 18 17 19 20 22 24 27 28 29 24 22 22 26 20 24 19 18 28 26 25 24 15 19 15 21 21 19 6 8 10 11 11 13 17 15 18 20 20 12 17 22 25 24
21 20 18 18 19 19 18 15 16 19 16 22 26 21 23 19 21 21 25 26 28 23 19 21 19 19 20 11 20 15 8 9 10 13 12 12 18 25 32 16 13 17 23 22
21 21 21 20 20 20 18 17 17 14 8 19 28 20 24 27 25 22 28 26 20 23 24 22 19 19 21 19 17 18 21 14 12 14 15 11 12 18 16 18 29 26 22 24
25 26 26 23 22 21 20 17 16 15 11 11 16 30 26 29 33 26 27 18 20 24 26 24 22 19 20 20 16 22 19 15 18 17 18 18 19 27 15 14 18 21 23 21
28 29 28 29 27 25 23 18 16 15 13 11 16 24 31 28 43 30 28 25 18 24 27 27 19 19 22 18 22 22 25 14 23 22 27 23 20 20 19 17 20 21 21 25
31 26 26 27 30 29 28 25 22 19 15 15 10 22 33 30 40 41 32 31 26 25 22 25 22 21 20 19 22 24 25 31 14 22 16 16 17 22 23 22 20 13 18 24
30 27 25 27 31 29 29 23 18 19 17 13 8 18 24 21 28 41 35 33 27 25 23 24 24 21 20 21 22 18 24 31 29 28 28 28 25 19 17 15 11 10 10 10
27 28 26 22 27 30 29 24 23 17 17 15 13 14 18 18 23 33 34 31 27 24 24 26 23 22 22 26 20 17 19 19 22 30 31 30 27 22 20 18 17 16 16 17
27 30 25 27 30 28 26 23 18 13 16 15 12 16 19 18 21 31 30 26 23 18 27 25 24 20 17 21 20 16 19 22 21 22 25 27 26 24 22 22 20 18 18 19
29 29 27 28 27 25 27 20 18 16 14 17 18 22 14 18 24 28 27 24 24 25 22 26 21 22 23 21 20 16 18 23 25 25 25 24 24 23 21 22 23 23 23 25
28 30 30 25 27 26 24 20 19 16 18 18 20 22 18 17 16 24 29 27 25 26 23 24 23 19 16 17 20 23 20 20 21 21 21 22 22 23 24 25 26 28 30 32
23 23 23 23 26 22 20 21 18 16 22 21 19 17 16 16 21 17 25 29 28 26 24 25 24 21 22 22 22 23 24 24 24 23 24 24 25 26 28 30 32 34 35 37
22 25 27 29 25 27 25 20 14 12 16 17 16 17 15 17 23 20 21 22 26 28 28 28 25 23 22 24 23 24 25 25 27 29 30 31 31 32 32 32 31 33 34 36
22 23 24 26 22 20 16 13 12 12 15 17 19 20 19 16 16 12 18 23 26 29 31 28 25 26 27 26 26 27 27 29 31 33 34 36 36 32 30 31 32 32 32 33
16 16 17 15 14 12 13 12 13 14 15 21 18 19 20 18 23 14 16 17 21 27 24 20 20 22 25 26 27 30 32 33 35 36 35 34 32 33 34 34 34 35 34 34
15 13 11 10 11 11 12 12 13 12 14 17 16 15 20 18 25 21 13 15 17 17 20 20 20 23 25 29 31 32 33 33 33 33 33 35 37 38 37 37 36 35 35 36
18 17 14 12 19 18 18 14 11 12 12 12 16 10 11 13 15 12 8 11 12 17 22 25 24 26 27 28 28 30 32 33 34 36 38 40 41 41 39 36 35 36 34 33

GFSNW_500_spd_096.txt.gz
Wind_Speed
26 27 27 22 17 16 13 13 19 20 24 26 25 19 18 22 21 26 34 41 42 42 39 42 40 40 38 35 33 31 33 33 29 31 27 26 25 24 22 32 34 30 25 25
24 24 23 20 14 12 13 14 17 19 22 22 19 18 20 16 17 23 27 31 34 36 31 19 32 37 35 28 31 32 28 31 28 28 27 28 23 26 27 30 30 32 29 30
24 22 20 17 13 10 8 11 15 16 17 18 18 19 18 14 18 18 22 24 30 42 37 39 29 25 32 37 26 28 31 29 35 29 28 30 30 31 28 30 35 37 34 34
23 21 18 16 13 9 6 8 14 15 16 19 20 21 17 14 15 11 14 18 31 38 29 32 39 30 20 19 24 23 31 25 20 27 28 30 32 32 21 21 20 23 20 29
21 18 17 14 14 9 5 9 15 16 17 18 17 16 15 13 19 16 12 15 27 30 37 41 40 35 15 12 11 31 30 16 17 21 23 28 31 24 25 24 23 18 17 17
19 17 17 17 16 8 7 13 14 16 18 18 16 16 16 15 18 17 13 17 22 25 30 26 29 32 24 21 16 33 25 12 18 24 28 26 21 24 26 32 33 29 27 21
18 16 13 10 9 8 10 12 13 14 19 18 15 16 16 14 15 20 15 15 17 26 26 22 21 29 24 19 22 16 18 14 18 26 35 26 24 21 25 24 28 27 24 25
17 15 15 12 7 5 9 12 13 17 18 17 16 19 18 17 15 15 14 19 14 17 19 16 18 18 19 19 17 17 14 20 27 26 24 23 22 24 23 25 28 29 31 28
18 16 13 16 16 13 12 14 17 18 19 17 22 20 18 17 18 18 21 21 18 13 25 22 16 17 19 19 16 17 23 32 31 29 23 22 21 19 22 25 28 29 29 26
21 18 16 15 16 19 19 18 20 20 19 22 22 20 21 19 14 16 24 21 21 19 18 11 11 11 16 17 19 24 29 23 23 26 26 25 25 24 24 24 24 26 22 24
23 20 19 19 18 19 21 18 24 26 22 24 25 26 22 20 17 16 24 26 21 20 17 14 13 15 19 25 25 18 16 18 21 21 23 21 20 20 21 19 16 22 21 20
24 23 21 21 21 21 19 17 20 24 23 20 26 24 22 19 21 22 25 17 19 17 18 11 15 13 19 18 16 6 14 17 16 20 18 17 19 19 24 25 18 20 21 19
23 22 22 21 21 20 16 17 18 13 13 23 28 19 28 25 25 24 24 29 25 18 19 14 15 15 19 14 8 10 12 12 13 11 11 11 12 10 20 28 26 19 16 14
22 21 22 21 20 19 17 16 16 14 15 19 24 34 26 30 30 27 23 26 28 22 18 20 18 17 19 15 11 5 12 16 13 12 10 13 14 14 15 18 21 22 21 26
26 26 26 24 23 23 19 17 16 17 16 15 17 16 27 27 33 28 18 22 21 22 20 19 20 20 19 19 22 11 14 19 21 16 18 15 17 16 16 23 21 19 17 17
28 28 28 27 25 25 26 22 19 17 16 16 15 14 24 32 33 34 23 21 26 17 20 21 21 20 16 14 20 21 18 25 29 26 12 21 18 27 21 16 17 19 20 19
26 28 28 27 25 25 26 24 20 19 18 17 17 13 20 29 31 35 34 27 27 20 19 19 20 22 19 22 13 20 22 25 25 27 18 20 17 13 16 17 16 18 23 21
31 31 28 24 20 20 26 28 22 20 19 18 16 12 11 18 24 23 41 29 29 22 19 18 18 20 18 21 20 19 18 17 13 18 29 29 25 24 22 20 19 19 18 18
21 28 29 25 23 23 25 25 21 18 17 17 14 8 14 15 14 15 22 36 28 24 22 21 20 24 25 20 21 21 21 18 18 22 23 25 28 26 24 25 24 23 23 23
29 30 28 29 24 25 25 19 20 17 17 16 16 18 12 17 13 19 18 25 30 28 22 19 22 26 25 22 19 24 26 26 23 22 24 24 22 24 25 27 27 26 25 24
30 33 33 28 27 24 21 21 19 17 12 15 18 23 15 21 17 17 19 22 26 27 26 20 19 25 23 25 24 20 24 21 22 24 26 28 28 28 27 27 27 26 26 26
25 28 29 30 28 26 23 20 19 16 14 16 19 26 20 14 15 20 23 24 23 24 23 25 20 22 24 23 25 22 23 25 25 24 25 27 28 26 26 27 28 28 30 30
32 29 30 29 26 27 23 20 14 10 13 18 18 18 18 17 15 13 17 21 28 29 28 24 21 23 22 23 24 24 26 24 24 25 26 27 28 29 30 31 32 32 32 32
20 23 27 25 21 19 16 12 11 12 18 20 18 18 16 17 17 20 14 15 20 28 28 26 27 27 26 24 25 24 26 27 28 30 32 34 35 36 37 37 37 37 33 33
21 22 21 18 14 14 13 14 14 11 12 17 19 18 18 16 15 18 13 13 19 22 21 23 26 28 30 30 31 30 33 35 35 35 36 37 38 40 40 40 37 35 36 37
17 17 16 15 13 14 15 14 15 15 16 15 16 17 20 18 16 21 18 11 9 14 17 21 26 28 28 27 29 32 34 34 35 35 35 36 36 35 36 36 37 39 41 40
14 14 12 10 11 12 12 12 11 10 11 9 10 11 12 15 15 19 18 13 12 10 11 16 19 23 25 28 30 32 33 33 34 33 33 35 36 37 37 37 38 39 40 39

GFSNW_500_spd_099.txt.gz
Wind_Speed
38 36 31 28 27 22 17 12 8 10 10 11 14 13 12 18 25 29 28 29 34 38 37 37 36 37 37 36 34 31 34 38 37 32 32 32 28 28 28 29 32 35 38 34
36 33 29 25 23 19 15 10 9 7 8 8 10 12 16 19 21 24 24 24 30 35 42 43 42 36 36 36 36 28 31 30 31 33 34 31 29 31 29 31 28 27 34 36
34 30 28 22 20 16 12 9 9 9 8 10 12 14 17 19 20 20 21 24 28 33 36 43 43 37 39 38 41 37 34 34 34 32 33 31 36 30 30 27 29 31 30 32
32 30 26 21 15 12 8 5 8 9 10 13 15 16 18 21 21 20 22 19 21 26 29 36 35 26 23 26 32 30 30 27 37 33 27 29 26 31 28 30 29 29 22 27
29 28 23 20 14 10 10 9 10 8 11 13 15 17 19 21 20 18 22 17 11 13 29 38 21 34 28 20 21 15 29 27 26 33 30 31 33 32 34 31 33 20 21 21
28 25 22 17 13 12 11 9 10 10 12 14 16 17 19 23 20 18 19 14 12 15 24 31 24 29 33 24 12 11 24 22 19 16 21 17 21 24 28 33 30 29 23 17
26 23 20 15 9 8 13 15 12 11 14 14 16 18 20 20 16 17 18 14 12 13 16 26 20 23 27 24 19 15 17 19 18 17 15 16 19 22 27 24 25 23 26 28
24 22 18 15 11 8 9 8 11 15 15 16 17 19 17 17 15 14 15 16 11 8 8 17 17 12 23 26 16 15 13 15 13 13 12 15 20 27 25 25 20 21 20 19
25 22 20 16 12 13 12 12 14 15 16 16 19 19 19 18 18 16 15 15 13 9 11 15 14 7 15 23 24 14 15 13 12 13 13 16 19 22 23 24 24 24 23 23
26 24 23 20 17 13 14 17 17 17 17 21 20 20 20 18 17 17 16 14 15 13 10 9 10 11 12 21 20 18 16 14 15 20 20 20 21 22 24 21 20 23 24 23
27 25 25 23 21 19 16 16 21 22 21 26 25 23 20 18 18 17 15 16 17 16 11 11 9 10 11 19 20 17 15 14 17 24 25 25 25 23 23 23 22 18 20 19
28 27 26 26 24 22 18 15 19 20 24 25 28 26 24 21 21 18 16 18 19 14 14 14 13 11 12 22 18 10 12 20 22 28 26 23 23 25 25 25 23 19 15 16
27 26 27 27 25 22 19 17 19 19 13 22 29 29 34 24 20 22 16 20 17 21 15 15 9 13 12 16 21 15 11 12 24 19 20 17 17 17 15 18 21 22 18 14
31 29 28 26 24 22 19 18 21 18 16 19 27 31 32 25 24 23 23 30 23 16 15 15 13 12 12 14 14 11 3 11 12 16 13 13 10 11 10 11 14 18 23 18
22 24 26 25 23 21 19 19 20 17 16 16 21 18 20 21 25 25 26 23 31 27 17 11 19 17 15 16 13 13 3 7 17 14 15 13 16 14 13 11 14 14 13 10
24 25 25 25 25 26 25 22 17 17 16 16 14 13 14 20 24 25 27 24 27 30 32 16 17 15 17 17 15 1 15 8 14 18 17 12 11 12 16 16 11 18 17 16
27 27 27 27 26 24 21 17 20 20 18 18 18 15 15 18 24 23 28 24 24 23 30 21 20 19 20 17 16 6 12 16 14 17 17 15 12 13 15 15 13 18 18 17
27 27 26 25 24 25 22 23 25 22 19 20 20 19 15 15 21 27 33 24 23 27 23 19 18 19 22 18 15 13 12 15 14 15 20 20 21 19 16 16 14 16 17 19
30 32 29 29 27 22 20 21 25 22 20 19 18 16 13 13 13 22 29 32 29 26 27 17 18 18 19 16 14 17 18 17 16 17 20 19 17 20 23 25 25 22 22 22
32 32 33 31 24 22 18 18 22 23 21 20 19 14 14 13 15 16 16 17 32 30 27 20 18 15 16 20 20 21 20 20 20 22 22 22 22 22 22 23 24 25 25 25
32 36 37 30 26 23 21 25 23 24 20 20 20 20 19 15 14 13 17 11 25 33 29 23 19 13 16 21 23 22 21 21 25 25 25 24 23 24 26 26 26 26 26 26
30 32 34 30 29 28 25 20 24 20 19 19 19 21 14 17 5 22 18 17 18 27 28 25 21 19 16 22 24 22 26 29 25 27 26 24 26 28 28 29 29 29 28 29
26 28 34 28 30 25 19 21 23 17 13 15 17 20 21 12 15 13 18 19 20 22 29 26 16 18 21 19 22 26 25 24 23 23 23 23 25 25 27 28 30 30 29 29
27 29 35 28 24 20 20 15 13 12 12 16 17 18 23 17 16 18 11 13 18 23 29 27 24 23 24 24 23 24 24 27 28 28 29 29 29 31 33 34 35 35 36 38
28 29 29 22 20 18 15 16 15 12 15 17 16 17 16 17 17 18 15 12 11 12 15 19 22 22 24 28 31 32 33 33 34 33 34 34 35 37 38 39 40 41 42 42
23 22 21 18 15 16 16 15 13 10 11 15 16 15 15 15 14 15 19 20 17 15 17 21 24 26 28 29 30 31 32 33 32 33 34 35 37 38 38 38 38 38 37 37
18 17 15 14 14 15 15 14 14 13 12 11 12 12 12 16 16 16 13 18 16 14 14 17 21 25 27 28 28 29 31 32 35 36 36 37 38 38 39 39 39 39 39 39

GFSNW_500_spd_105.txt.gz
Wind_Speed
35 35 38 40 39 42 40 39 36 31 25 15 7 4 4 5 4 5 8 9 14 15 11 13 16 20 20 22 24 25 29 29 26 25 27 28 29 29 31 31 29 31 32 34
34 34 37 37 37 39 37 36 33 28 21 13 6 3 2 3 3 4 5 6 8 11 13 16 18 20 22 22 23 24 24 25 22 24 28 29 29 28 28 28 29 30 31 32
33 34 36 35 34 35 33 33 29 24 18 12 9 5 2 4 3 2 3 3 4 6 9 14 19 21 23 23 24 25 26 25 25 22 25 27 30 30 28 28 30 30 29 27
34 33 35 33 31 32 30 30 25 21 15 12 10 6 4 4 4 3 1 2 5 7 10 13 17 20 25 25 25 25 26 29 30 27 26 24 26 29 30 30 31 32 29 23
33 33 33 31 28 28 27 28 24 18 13 12 11 7 6 6 5 2 3 5 8 13 17 20 23 25 26 25 25 22 23 27 29 29 27 29 25 25 26 27 24 25 26 23
33 32 33 29 25 25 25 27 21 15 14 11 10 8 8 6 5 6 7 9 14 16 18 15 13 11 22 24 23 12 13 18 21 26 30 30 28 27 25 23 21 25 21 24
33 31 32 28 25 21 22 25 17 15 12 9 9 9 6 6 8 10 10 12 14 13 4 5 11 8 14 16 22 22 19 14 15 19 20 26 32 27 22 23 21 19 19 18
32 31 30 27 24 21 18 24 15 10 9 6 5 6 9 10 10 10 10 11 12 2 3 10 3 8 9 10 17 10 11 12 17 16 13 12 19 23 23 19 17 13 10 11
33 31 29 27 24 21 18 22 19 15 15 15 12 13 12 12 11 11 10 10 7 5 0 8 2 7 3 7 11 13 8 5 7 16 17 15 17 19 18 15 13 14 12 14
33 31 29 27 25 22 19 20 23 18 19 21 15 14 14 13 14 13 11 9 5 9 5 2 0 6 6 4 4 3 9 11 7 17 18 16 14 13 16 13 12 12 9 10
33 32 29 27 26 23 20 19 23 21 19 23 21 20 19 17 16 14 12 10 7 9 8 2 0 3 4 7 8 9 8 10 10 12 16 11 14 11 12 11 12 10 9 9
34 33 29 28 27 24 23 19 22 26 19 20 23 23 25 23 19 15 13 12 8 13 10 8 2 4 3 7 12 15 15 13 10 8 9 9 11 10 10 8 10 11 11 11
34 32 30 29 27 25 23 22 21 24 23 21 25 24 24 22 21 16 13 13 9 18 13 12 6 7 5 5 8 13 18 12 16 18 17 15 12 11 9 8 8 9 12 13
35 32 30 29 27 25 24 20 21 24 24 19 23 24 23 20 16 12 15 15 11 21 18 11 7 10 8 7 6 11 20 10 9 19 15 12 11 11 7 4 4 7 8 9
35 32 31 29 27 26 25 23 23 22 22 18 19 23 19 14 15 12 15 17 17 22 22 15 9 8 8 8 6 3 5 7 7 7 16 13 8 9 9 9 8 7 9 10
35 32 30 28 26 26 26 22 18 21 22 18 20 20 13 14 15 13 15 20 19 17 23 18 10 10 9 10 8 15 2 8 7 9 5 17 19 15 16 16 15 12 10 11
34 32 29 27 26 25 22 17 18 21 19 17 16 16 11 11 12 12 16 20 20 22 24 22 10 9 7 6 8 8 7 6 9 10 11 9 11 10 13 12 14 12 13 12
33 29 26 24 22 22 20 18 20 18 18 17 15 13 12 11 9 9 12 16 19 22 26 27 22 15 9 8 9 9 12 7 7 8 9 11 12 10 7 11 13 12 11 13
27 23 21 22 25 21 17 16 18 20 17 15 15 16 12 11 9 8 11 15 17 20 21 20 29 31 21 13 13 12 13 12 10 10 11 11 8 7 8 11 12 13 16 16
23 25 25 27 24 19 19 23 21 21 19 16 15 16 13 10 10 9 9 14 20 18 19 17 17 18 19 14 14 15 16 14 13 10 11 12 14 13 13 14 15 15 16 18
31 27 27 22 18 19 23 25 23 21 19 17 17 18 14 11 11 10 7 6 11 14 17 17 18 18 18 13 14 16 15 18 18 17 15 15 15 17 17 17 19 21 21 22
27 27 27 27 23 25 25 23 20 19 16 13 16 18 13 11 11 13 9 12 11 10 12 18 22 22 20 16 16 15 14 18 21 22 20 20 19 20 20 19 22 25 28 28
27 27 29 25 31 31 25 15 14 12 7 13 16 15 15 15 12 10 10 15 15 15 14 13 10 16 20 20 18 19 15 17 20 23 24 26 25 24 25 27 29 30 29 33
36 33 39 24 31 26 18 11 8 8 10 10 11 12 14 14 12 7 7 14 13 14 18 16 12 12 18 22 22 22 19 18 20 22 24 26 26 27 28 30 29 29 31 32
37 28 25 27 25 24 17 11 13 12 12 11 10 12 15 17 11 10 9 9 5 6 9 10 14 16 16 21 25 27 27 28 29 26 28 29 30 30 33 35 36 36 37 37
33 32 23 22 24 19 17 15 14 13 10 10 10 13 14 15 16 13 12 11 11 15 17 14 11 13 16 21 25 28 32 32 33 33 34 34 34 36 38 39 39 39 38 37
31 28 21 20 19 15 15 14 12 10 9 11 12 13 13 12 13 13 14 13 14 15 16 19 19 20 19 20 23 25 28 30 31 31 31 32 33 34 35 36 37 39 40 42

GFSNW_500_spd_108.txt.gz
Wind_Speed
28 27 31 30 31 32 36 36 37 33 35 29 22 13 7 3 1 4 10 8 10 13 10 9 8 5 14 20 21 26 28 25 23 24 24 24 24 22 22 21 24 25 27 25
29 28 29 29 29 30 32 32 33 31 31 24 19 12 7 2 1 3 5 7 8 7 9 10 7 9 9 7 12 11 12 18 18 19 17 18 18 20 21 22 25 25 23 18
31 31 27 27 28 29 29 30 29 28 26 21 17 11 8 3 3 4 5 6 5 6 6 7 10 10 11 12 15 16 16 11 15 17 18 20 20 21 23 23 24 23 25 22
32 28 25 25 26 28 27 26 26 25 21 16 15 12 9 7 5 4 5 5 3 3 5 8 10 12 14 14 15 16 16 17 17 16 18 20 21 23 23 23 23 24 24 24
33 30 24 24 25 25 24 24 24 21 18 13 14 13 9 6 3 0 1 0 2 6 9 11 14 16 19 17 16 16 17 18 17 19 19 20 21 20 21 22 23 23 24 25
35 30 24 23 24 22 21 21 22 17 15 11 11 10 8 5 3 3 4 7 10 12 12 12 11 14 18 20 20 15 14 14 12 11 12 15 20 21 21 20 20 20 22 25
36 30 24 23 24 20 19 20 20 16 11 12 11 8 6 6 8 10 9 10 11 12 5 7 12 11 8 15 20 21 15 9 9 10 13 17 21 21 23 23 23 22 21 21
36 31 24 24 24 20 17 19 18 16 15 9 7 8 10 10 9 10 10 10 11 9 3 4 7 5 6 3 6 17 19 13 12 12 13 14 16 19 22 24 22 21 23 21
32 26 25 26 25 20 18 19 18 18 16 15 13 13 12 11 10 9 10 11 10 6 2 4 3 3 3 4 10 11 16 12 15 14 12 12 10 13 20 23 22 22 22 21
27 26 26 27 26 21 19 20 18 20 16 19 16 14 14 14 13 12 11 12 10 6 7 1 1 2 2 6 12 9 10 8 6 7 15 14 14 16 22 22 21 22 20 21
26 27 29 29 27 23 20 21 20 20 18 19 19 18 18 17 15 14 14 13 11 7 12 6 4 2 6 7 6 9 11 10 7 6 12 17 22 16 16 19 19 19 17 15
32 32 32 30 27 25 23 19 23 22 19 17 20 21 18 17 15 15 18 15 11 8 12 12 5 6 3 6 10 10 11 12 11 10 10 17 17 13 13 16 16 15 13 12
33 32 31 29 27 25 24 21 23 24 21 19 20 20 19 18 15 13 16 16 11 9 13 13 9 9 2 6 8 12 15 15 15 12 8 10 17 15 12 13 14 15 16 15
35 34 31 29 28 27 26 23 24 24 22 16 19 20 19 18 16 14 17 13 12 11 17 15 12 10 9 8 8 9 14 15 10 11 14 15 15 16 13 12 11 11 9 8
38 36 33 31 29 28 27 24 24 24 23 16 18 20 18 14 17 15 16 16 15 15 22 18 12 11 12 8 6 6 5 11 11 12 15 17 12 14 15 14 10 9 9 8
37 37 34 31 30 28 27 25 23 23 24 20 19 19 16 17 16 15 14 15 15 18 23 25 15 11 10 8 9 12 9 3 7 7 7 15 18 13 16 13 9 13 10 12
42 37 34 31 31 29 27 23 21 23 20 17 16 15 13 13 13 12 12 14 17 21 22 28 23 14 14 9 7 7 10 4 9 10 6 10 23 19 21 16 14 15 14 14
41 38 35 31 30 28 26 22 18 21 19 14 13 13 11 10 10 9 10 11 12 16 21 27 27 19 16 11 4 4 9 8 12 14 11 7 10 11 15 15 17 18 18 18
36 35 33 31 30 26 19 18 19 19 19 16 13 13 10 9 8 8 7 8 9 13 20 25 30 23 21 14 7 6 8 10 12 16 15 13 10 15 15 15 14 15 16 16
33 31 29 28 26 21 21 21 21 22 23 13 12 11 9 8 9 7 7 8 11 13 15 22 26 28 30 26 20 15 14 15 15 15 18 19 18 18 17 16 15 16 18 18
34 30 27 26 22 22 23 24 25 26 19 15 15 12 12 10 11 10 10 4 2 5 12 16 17 15 17 26 26 20 17 17 19 20 19 17 19 21 21 21 21 22 22 22
31 31 29 25 23 23 26 29 25 18 15 10 13 14 14 13 12 11 13 8 6 6 9 11 10 11 20 22 23 19 18 20 22 22 24 24 23 23 22 22 23 24 25 26
36 31 27 25 25 24 24 17 12 10 7 13 15 14 13 14 12 10 11 9 10 8 10 9 6 10 14 23 26 23 21 23 20 22 25 26 27 27 26 26 27 27 28 29
34 32 29 27 25 23 17 11 9 12 12 11 11 13 15 16 14 13 11 15 15 14 11 10 13 15 12 18 21 26 24 24 23 19 18 21 24 27 29 30 30 31 32 32
32 30 30 23 12 21 20 13 15 13 14 13 12 12 13 15 15 13 9 6 7 6 8 9 12 11 13 15 18 23 25 26 28 28 29 31 29 28 29 32 35 37 36 36
29 26 25 26 18 22 19 17 13 12 10 10 9 11 14 17 15 12 11 12 12 14 14 16 16 15 13 15 19 22 24 25 26 28 29 29 30 32 34 35 36 37 38 38
25 29 21 18 19 23 20 14 12 11 10 10 10 13 16 16 16 16 14 13 15 16 17 17 17 18 18 20 23 25 26 28 30 31 33 35 37 38 38 38 39 39 40 41

GFSNW_500_spd_111.txt.gz
Wind_Speed
31 28 28 24 27 27 23 24 27 29 30 31 33 21 13 11 12 11 10 12 10 11 15 18 16 10 11 12 14 17 17 16 17 15 24 26 21 17 20 23 20 22 17 12
29 30 29 24 25 24 21 22 24 26 26 28 26 17 10 10 10 10 9 8 8 9 10 13 12 15 12 4 8 21 20 19 19 20 19 21 25 23 23 24 24 16 22 21
34 31 28 27 26 23 19 21 22 23 22 25 19 13 9 9 8 10 10 9 8 9 9 10 12 12 9 12 6 5 28 21 21 19 16 13 18 20 21 22 21 19 12 17
36 33 29 25 24 19 18 18 19 19 20 21 15 10 7 8 6 8 9 10 12 11 12 11 15 14 12 9 8 10 5 8 24 16 20 21 17 15 19 21 19 19 18 20
36 33 28 26 22 19 16 18 17 15 16 16 12 8 7 8 4 2 0 1 5 9 13 16 17 19 18 17 13 11 12 13 14 15 6 13 15 18 18 18 20 23 28 18
35 33 29 25 22 20 17 17 15 13 12 11 10 7 5 4 3 3 4 4 5 9 11 12 14 19 23 23 22 18 15 13 12 13 12 14 13 14 15 15 17 18 16 23
35 34 32 27 22 21 19 17 15 13 12 10 8 4 4 5 7 6 6 9 11 13 16 14 12 11 8 16 21 19 17 17 14 14 10 13 17 15 16 20 22 19 20 20
41 37 32 24 23 22 21 20 16 14 14 12 12 10 9 8 9 9 10 11 13 14 14 11 6 6 9 7 10 21 16 14 15 14 16 15 16 17 20 22 23 20 22 23
31 30 27 26 26 24 22 21 18 16 16 15 13 15 15 13 12 11 12 13 13 13 10 6 4 2 1 2 5 4 18 17 12 12 16 15 16 18 21 22 25 24 24 22
33 31 30 30 28 25 23 23 19 18 18 18 15 14 16 15 14 13 14 14 13 12 9 2 3 2 2 5 5 4 12 13 13 14 14 20 20 19 16 20 16 25 25 23
33 33 32 31 29 26 24 24 21 20 19 18 18 14 15 15 15 14 15 15 15 11 7 4 4 4 9 7 6 8 6 8 9 14 14 17 18 19 20 18 27 21 25 26
30 29 29 28 27 26 25 23 24 21 18 20 19 18 14 16 14 13 15 17 15 12 9 8 10 8 6 9 8 10 10 14 6 15 7 16 19 20 29 19 14 23 23 19
29 28 26 27 28 28 28 25 25 23 21 20 20 19 17 15 16 16 15 15 13 12 11 13 14 11 8 9 8 12 15 15 17 14 14 11 19 17 15 12 16 17 17 17
32 30 29 30 30 30 28 25 26 24 23 20 21 19 19 17 16 15 17 15 16 15 14 15 16 17 17 9 9 10 13 14 18 19 16 14 14 15 18 13 14 17 17 18
36 34 33 32 31 29 27 27 26 25 24 21 19 19 19 17 17 15 16 17 16 15 17 19 20 18 15 14 13 13 12 11 14 20 14 16 12 14 14 16 17 17 16 14
40 39 36 35 33 31 29 27 26 24 25 22 20 22 19 20 18 16 17 19 15 16 21 23 23 20 17 16 14 15 16 12 6 12 12 10 16 15 16 16 18 17 19 16
40 39 40 37 35 32 29 27 26 25 24 20 20 20 18 18 16 14 15 15 15 16 21 24 27 25 17 17 15 15 11 10 6 8 7 11 14 19 14 17 21 16 17 17
43 43 41 39 36 32 29 28 25 24 20 21 17 15 15 14 11 11 12 12 12 14 19 25 29 28 22 16 16 11 9 12 9 7 9 6 7 16 23 20 24 20 17 19
47 46 43 39 35 31 28 25 22 22 23 21 15 15 12 13 11 9 8 8 9 11 15 23 22 26 28 19 18 13 8 8 13 11 13 13 9 7 13 15 17 20 21 21
37 41 42 38 32 30 27 25 23 24 24 21 15 15 11 12 10 8 8 9 9 8 10 15 17 24 27 25 25 19 14 12 11 15 16 18 19 15 14 14 16 23 23 23
34 36 34 33 30 27 25 27 25 25 25 15 15 15 11 11 10 8 10 8 5 4 9 14 13 17 23 32 31 32 29 26 21 19 21 21 22 23 23 22 21 22 23 23
33 32 29 27 27 27 30 28 27 26 19 14 14 17 14 14 14 13 12 12 11 8 7 11 10 7 17 21 24 28 34 29 26 26 25 24 26 25 25 26 27 28 30 30
35 34 26 28 30 29 28 25 22 15 8 13 17 14 12 13 14 14 14 13 10 7 6 4 4 11 14 17 20 26 28 28 27 29 27 25 26 28 30 31 30 31 31 31
38 33 31 33 29 26 21 14 10 10 15 14 13 12 12 12 15 15 11 12 10 10 10 7 12 11 13 20 23 20 25 31 30 29 30 30 27 26 27 27 31 34 37 38
41 38 34 30 21 20 15 13 15 19 20 15 13 13 13 14 14 17 14 12 10 8 8 9 11 15 16 16 16 19 22 24 29 33 33 34 35 34 32 33 33 33 36 38
39 34 27 22 17 17 19 16 19 19 18 15 14 13 13 14 16 15 13 12 10 12 14 16 18 20 18 15 15 16 21 25 28 31 33 34 34 34 34 35 36 37 38 39
32 26 24 20 18 12 19 19 19 16 13 13 12 11 12 16 16 14 13 14 16 16 18 20 21 21 22 23 23 23 25 28 31 33 35 38 39 41 43 43 44 44 44 45

GFSNW_500_spd_114.txt.gz
Wind_Speed
30 27 29 27 22 22 21 21 19 19 21 23 26 30 31 24 15 14 14 10 8 10 12 17 21 18 11 6 8 12 18 18 10 13 9 16 20 21 25 25 26 21 14 15
30 33 30 27 24 24 21 19 17 17 19 20 22 27 24 14 13 14 14 11 6 7 10 12 13 13 22 12 9 12 14 15 20 10 14 19 22 22 20 23 19 21 24 20
36 34 31 26 27 24 22 19 17 15 16 15 18 22 16 11 12 14 14 13 9 8 11 13 15 11 11 17 9 7 14 14 15 9 13 20 21 19 21 24 27 17 13 26
36 33 32 28 26 24 18 18 16 14 12 11 14 16 11 10 13 13 12 11 10 12 13 13 19 22 15 8 18 20 12 20 10 12 10 13 15 24 25 24 20 26 17 14
37 34 31 32 27 24 19 20 17 13 9 7 9 9 9 8 7 7 9 11 13 15 16 19 21 22 24 15 14 21 22 10 11 5 11 3 11 18 19 14 17 21 24 24
34 37 33 28 28 24 21 19 18 12 9 7 4 4 4 5 6 7 9 9 9 12 14 16 18 21 26 26 17 16 16 13 12 10 12 6 12 7 7 9 9 10 26 20
36 39 35 24 28 25 20 19 17 14 11 10 11 8 9 9 7 6 9 10 11 13 15 16 6 5 12 15 16 17 16 12 13 11 8 8 14 12 13 15 23 25 28 28
35 36 34 30 27 25 21 20 20 17 15 13 14 13 13 11 10 10 10 11 12 13 14 8 4 4 7 11 5 8 14 16 14 11 11 11 12 13 14 16 19 18 17 20
37 35 33 33 31 25 22 22 23 19 18 14 14 15 16 16 15 14 14 13 13 14 13 7 6 4 5 6 11 10 10 10 14 15 14 15 19 14 16 19 20 22 27 22
34 37 34 29 26 23 24 24 24 22 21 16 15 15 15 17 18 17 16 16 14 13 11 5 3 4 4 5 10 2 9 15 16 14 16 19 18 18 18 21 25 28 22 27
30 28 28 25 25 24 23 27 27 25 21 17 17 15 14 16 17 17 17 18 17 14 11 6 6 5 6 9 5 5 7 10 11 13 17 19 23 25 22 20 29 26 16 26
28 27 28 27 27 26 27 31 30 26 20 20 18 18 15 15 16 18 16 16 16 15 11 11 7 11 6 8 10 14 13 12 10 8 10 9 20 19 23 27 19 33 25 22
30 29 28 27 27 28 31 31 29 23 20 22 19 19 18 17 16 17 17 18 16 17 16 13 12 14 12 10 14 8 11 15 18 17 15 13 11 16 23 20 14 23 24 25
32 30 28 26 26 28 29 27 27 24 22 21 20 19 18 19 17 17 18 18 17 17 17 16 16 16 19 15 12 12 13 15 18 20 22 21 17 13 16 19 12 16 16 17
32 30 29 28 28 29 30 29 26 26 24 21 19 19 19 19 19 18 18 18 18 17 18 18 18 20 21 21 17 13 17 16 16 19 20 21 18 20 18 16 19 17 14 15
36 34 32 31 31 31 31 29 26 27 25 24 21 21 20 20 20 20 20 18 19 19 19 20 19 24 23 23 21 19 18 17 15 13 17 20 20 18 16 16 16 18 17 16
40 38 36 34 34 32 30 27 25 26 26 23 21 21 21 20 19 19 19 19 18 19 19 20 20 25 27 22 21 19 19 14 13 9 7 12 15 15 20 17 16 17 18 16
39 39 39 38 36 33 30 28 28 27 25 23 22 19 19 19 16 16 14 15 16 17 18 19 20 23 24 25 18 20 19 16 14 7 9 8 8 8 12 17 16 16 22 18
41 41 40 38 37 36 31 30 29 26 25 24 21 18 14 13 13 13 12 11 13 14 13 14 18 17 20 23 21 18 19 18 15 12 11 11 11 9 7 10 15 19 20 24
44 43 40 36 35 33 32 30 28 27 27 26 18 17 12 10 11 12 11 10 11 10 10 11 9 15 17 20 27 26 23 23 19 13 12 16 17 15 15 12 13 15 19 21
38 41 41 40 37 34 31 29 28 27 25 21 16 19 13 12 12 11 11 9 7 6 5 8 9 7 11 17 24 28 27 28 26 24 20 20 21 20 22 22 21 21 21 21
27 29 32 31 30 29 30 30 27 25 24 17 18 16 15 14 14 14 14 13 10 8 9 9 9 10 14 15 17 22 30 33 36 36 38 38 35 29 26 26 26 26 27 27
29 31 32 27 30 31 30 29 27 24 12 11 18 17 14 15 14 14 18 17 11 10 10 6 3 9 11 12 14 19 23 27 29 33 31 33 33 32 32 31 30 31 33 33
35 31 34 27 26 26 24 21 13 13 14 16 17 16 14 13 14 13 15 15 12 12 10 4 12 12 13 12 16 19 22 23 26 26 28 31 32 33 34 35 34 33 34 35
41 33 32 33 27 25 21 18 12 17 21 22 15 13 13 13 14 15 14 13 10 9 11 12 11 11 15 19 22 21 22 22 22 23 25 28 34 36 38 39 40 41 41 39
39 27 22 31 27 21 18 14 12 16 18 17 14 12 12 12 13 13 14 13 12 11 11 12 15 18 22 24 25 25 26 25 25 26 28 30 33 36 39 42 44 44 45 44
37 28 25 26 23 17 17 17 15 17 16 14 12 12 12 12 13 12 12 12 14 14 16 18 21 23 24 25 27 28 28 28 28 29 30 33 35 38 41 44 46 48 50 51

GFSNW_500_spd_117.txt.gz
Wind_Speed
37 31 29 27 23 24 19 16 12 12 12 12 14 17 20 21 17 15 18 17 13 6 7 17 18 16 16 14 10 11 9 15 12 5 5 7 17 16 23 20 15 19 18 16
33 33 32 26 24 25 21 17 14 12 11 12 12 15 18 14 13 14 18 17 15 11 7 14 13 13 15 17 16 15 11 14 11 6 6 7 6 17 19 16 11 18 17 9
35 35 29 27 28 27 21 20 14 13 12 11 10 13 12 12 9 13 15 15 12 11 9 11 13 11 16 18 13 15 14 14 10 7 9 16 19 20 19 15 20 15 19 14
37 33 31 31 31 28 24 18 15 14 12 10 10 9 7 6 8 10 12 13 13 12 12 13 15 16 13 20 16 13 14 15 10 10 8 5 22 21 24 24 22 21 18 24
40 34 34 34 30 27 23 19 15 14 13 11 9 7 2 1 5 8 9 10 14 17 19 21 19 20 21 19 21 14 15 6 8 8 8 13 15 21 25 25 26 23 29 17
41 41 34 33 33 28 21 19 18 17 16 13 12 9 5 5 4 4 6 9 12 15 18 20 21 13 13 15 15 16 10 6 6 5 8 14 6 12 11 18 22 26 30 19
41 36 36 35 32 25 24 20 18 20 16 17 14 15 12 9 7 5 6 8 11 13 15 18 9 9 11 15 18 6 8 7 6 3 4 1 6 16 11 11 8 18 26 20
38 36 33 34 30 21 22 22 19 21 20 19 16 16 16 16 11 9 10 11 12 13 13 13 7 7 10 11 20 2 4 7 7 6 6 7 4 5 11 13 10 11 16 21
35 32 33 31 29 25 20 20 21 22 21 19 18 17 17 18 16 15 12 14 14 13 13 10 4 3 5 9 14 12 5 9 7 8 10 10 9 9 10 15 17 17 18 20
30 31 32 31 28 25 23 23 22 23 23 20 19 18 17 17 18 17 16 16 16 14 14 12 8 6 4 4 8 10 2 9 11 11 12 13 12 13 12 17 18 19 20 11
31 31 31 30 28 24 24 25 25 24 23 19 21 19 19 18 16 15 18 16 16 16 15 15 10 9 8 5 3 9 14 10 10 13 15 14 17 19 19 18 21 21 24 28
31 31 29 28 28 30 27 26 23 22 21 21 21 20 18 18 15 14 16 15 17 14 14 14 11 11 13 11 9 7 6 8 12 13 11 12 18 20 19 23 26 24 20 21
30 32 31 28 29 29 27 25 24 24 22 22 22 19 19 16 16 15 14 16 15 16 17 15 13 14 15 16 13 17 8 9 11 14 17 18 12 10 14 18 21 23 30 25
32 30 29 29 27 26 26 25 26 24 23 24 20 18 17 16 17 16 15 16 15 16 18 19 16 14 15 21 19 16 15 15 13 14 17 15 17 16 16 16 16 17 17 20
31 29 28 27 26 25 26 25 25 24 22 21 21 19 18 18 17 16 17 17 18 18 18 20 18 17 17 22 24 20 17 14 15 18 19 18 17 18 21 20 21 19 19 19
35 32 30 29 27 27 26 24 23 23 21 20 19 19 18 17 17 18 20 18 19 19 18 19 19 21 19 23 24 23 21 18 16 17 19 18 15 16 18 18 19 20 20 19
34 32 31 31 29 28 26 24 24 25 23 20 21 20 18 18 18 18 19 20 19 18 17 19 19 22 22 21 24 23 23 22 20 16 13 11 10 13 15 17 22 21 17 19
36 34 33 31 29 29 27 27 27 27 25 24 21 19 20 19 17 17 17 16 15 15 15 16 18 18 19 21 20 22 23 20 19 18 15 13 8 8 9 12 16 19 16 16
39 38 36 34 33 31 30 29 28 27 26 24 21 20 18 17 15 13 12 12 13 13 15 14 13 13 15 13 14 22 23 21 19 18 16 15 13 10 9 9 10 11 12 14
40 38 37 36 35 34 32 30 29 28 26 25 20 18 16 14 13 12 11 12 10 9 9 8 8 5 8 10 13 20 26 27 23 20 20 18 15 13 17 16 16 16 15 15
36 35 37 37 36 35 34 31 31 29 28 23 18 18 17 14 13 12 11 9 7 6 4 6 6 5 9 11 12 15 19 24 26 25 24 27 26 26 29 27 24 22 23 22
34 34 34 34 35 35 34 31 29 28 26 20 15 17 18 15 13 13 14 11 8 7 5 7 6 9 10 12 12 11 11 14 17 23 27 31 33 36 37 38 37 32 28 27
31 31 30 29 32 35 35 32 27 25 17 15 16 20 19 17 19 16 16 15 14 10 9 7 6 8 10 9 11 12 14 16 19 21 24 27 30 31 32 32 32 32 31 31
28 28 29 24 21 25 24 24 20 15 13 16 18 20 19 15 17 17 14 14 12 11 10 8 8 10 11 11 11 17 19 22 22 24 25 25 25 25 26 30 33 34 35 35
29 29 33 21 13 19 20 17 15 15 21 22 21 18 15 15 15 15 14 11 9 7 8 9 10 11 11 14 18 22 24 25 26 27 28 29 29 30 30 31 33 36 38 40
30 37 35 21 11 20 20 19 15 15 20 22 18 13 12 13 13 14 16 13 10 8 6 8 10 13 16 20 24 25 26 27 27 27 28 29 30 31 33 35 37 39 41 43
41 35 27 24 17 20 20 18 20 18 14 13 12 12 11 11 11 10 10 11 12 10 10 12 16 19 22 23 24 24 23 23 25 27 29 31 33 34 36 38 39 41 43 45